Stations météo

réclame
Mon MeteoGroup
Pantelleria, Italie (16470): Température de l'air & dewpoint: 18.01.2018 10:00:00 - 24.01.2018 10:00:00 (CET)Pantelleria, Italie (16470): Vitesse du vent: 18.01.2018 10:00:00 - 24.01.2018 10:00:00 (CET)Pantelleria, Italie (16470): Direction du vent: 18.01.2018 10:00:00 - 24.01.2018 10:00:00 (CET)Pantelleria, Italie (16470): reduced air pressure: 18.01.2018 10:00:00 - 24.01.2018 10:00:00 (CET)Pantelleria, Italie (16470): visibility: 18.01.2018 10:00:00 - 24.01.2018 10:00:00 (CET)Pantelleria, Italie (16470): Ensoleillement: 18.01.2018 10:00:00 - 24.01.2018 10:00:00 (CET)
Date & Time tt [°C] td [°C] ff [km/h] ff [knt] dd ppp [hPa] vv [km] sd [min]
24.01.2018 10:00:00 12,6 10,1 15 8 NNE 1027,9 20 60
24.01.2018 09:00:00 12,0 9,5 16 9 NNE 1027,9 15 60
24.01.2018 08:00:00 11,8 9,4 13 7 NNE 1027,0 10 0
24.01.2018 07:00:00 11,8 9,4 13 7 NNE 1026,7 10 0
24.01.2018 06:00:00 - - - - - - - -
24.01.2018 05:00:00 - - - - - - - -
24.01.2018 04:00:00 - - - - - - - -
24.01.2018 03:00:00 - - - - - - - -
24.01.2018 02:00:00 - - - - - - - -
24.01.2018 01:00:00 - - - - - - - -
24.01.2018 00:00:00 - - - - - - - -
23.01.2018 23:00:00 - - - - - - - -
23.01.2018 22:00:00 - - - - - - - -
23.01.2018 21:00:00 - - - - - - - -
23.01.2018 20:00:00 - - - - - - - -
23.01.2018 19:00:00 12,8 10,5 18 10 NW 1022,1 10 0
23.01.2018 18:00:00 12,8 10,5 21 11 NW 1021,6 10 0
23.01.2018 17:00:00 13,0 10,7 26 14 NW 1021,0 10 12
23.01.2018 16:00:00 13,4 10,8 34 18 NW 1020,5 12 0
23.01.2018 15:00:00 13,4 10,8 37 20 NW 1020,0 10 0
23.01.2018 14:00:00 13,8 11,5 35 19 NW 1019,5 11 12
23.01.2018 13:00:00 14,0 11,7 37 20 WNW 1019,5 11 18
23.01.2018 12:00:00 14,0 11,5 35 19 WNW 1019,9 11 36
23.01.2018 11:00:00 14,0 11,4 39 21 WNW 1020,1 15 0
23.01.2018 10:00:00 13,8 11,5 29 16 WNW 1020,1 15 6
23.01.2018 09:00:00 13,8 11,5 34 18 WNW 1019,3 15 0
23.01.2018 08:00:00 13,6 11,3 31 17 WNW 1018,8 12 0
23.01.2018 07:00:00 13,6 11,3 37 20 WNW 1018,8 10 0
23.01.2018 06:00:00 - - - - - - - -
23.01.2018 05:00:00 - - - - - - - -
23.01.2018 04:00:00 - - - - - - - -
23.01.2018 03:00:00 - - - - - - - -
23.01.2018 02:00:00 - - - - - - - -
23.01.2018 01:00:00 - - - - - - - -
23.01.2018 00:00:00 - - - - - - - -
22.01.2018 23:00:00 - - - - - - - -
22.01.2018 22:00:00 - - - - - - - -
22.01.2018 21:00:00 - - - - - - - -
22.01.2018 20:00:00 - - - - - - - -
22.01.2018 19:00:00 13,8 11,7 35 19 WNW 1017,6 6 0
22.01.2018 18:00:00 13,8 11,7 29 16 WNW 1017,5 7 0
22.01.2018 17:00:00 13,8 11,7 34 18 WNW 1017,5 10 0
22.01.2018 16:00:00 14,4 12,3 34 18 WNW 1017,3 15 6
22.01.2018 15:00:00 14,2 11,7 41 22 WNW 1016,8 10 0
22.01.2018 14:00:00 14,4 11,9 35 19 NW 1017,4 10 0
22.01.2018 13:00:00 14,2 11,7 34 18 NW 1017,5 10 12
22.01.2018 12:00:00 14,0 11,7 29 16 WNW 1017,8 10 0
22.01.2018 11:00:00 14,0 11,7 29 16 NW 1017,8 10 0
22.01.2018 10:00:00 14,0 11,9 31 17 NW 1017,5 10 0
22.01.2018 09:00:00 14,0 11,7 31 17 NW 1018,0 7 0
22.01.2018 08:00:00 13,8 11,5 26 14 NW 1017,6 8 0
22.01.2018 07:00:00 13,8 11,5 29 16 NW 1017,1 8 0
22.01.2018 06:00:00 - - - - - - - -
22.01.2018 05:00:00 - - - - - - - -
22.01.2018 04:00:00 - - - - - - - -
22.01.2018 03:00:00 - - - - - - - -
22.01.2018 02:00:00 - - - - - - - -
22.01.2018 01:00:00 - - - - - - - -
22.01.2018 00:00:00 - - - - - - - -
21.01.2018 23:00:00 - - - - - - - -
21.01.2018 22:00:00 - - - - - - - -
21.01.2018 21:00:00 - - - - - - - -
21.01.2018 20:00:00 - - - - - - - -
21.01.2018 19:00:00 14,0 11,7 44 24 WNW 1013,0 10 0
21.01.2018 18:00:00 14,6 12,3 41 22 WNW 1012,5 10 0
21.01.2018 17:00:00 15,0 12,0 50 27 WNW - 10 -
21.01.2018 16:00:00 15,0 12,0 50 27 WNW - 10 -
21.01.2018 15:00:00 - - - - - - - -
21.01.2018 14:00:00 15,0 12,9 41 22 W 1012,4 15 18
21.01.2018 13:00:00 15,0 12,9 35 19 W 1012,5 15 30
21.01.2018 12:00:00 13,2 11,1 34 18 W 1013,6 15 0
21.01.2018 11:00:00 13,2 11,1 37 20 WSW 1014,5 15 0
21.01.2018 10:00:00 12,6 10,5 35 19 WSW 1014,6 15 0
21.01.2018 09:00:00 13,0 10,9 31 17 W 1014,7 15 0
21.01.2018 08:00:00 13,0 10,9 28 15 W 1014,8 15 0
21.01.2018 07:00:00 13,0 10,9 41 22 WNW 1014,9 8 0
21.01.2018 06:00:00 - - - - - - - -
21.01.2018 05:00:00 - - - - - - - -
21.01.2018 04:00:00 - - - - - - - -
21.01.2018 03:00:00 - - - - - - - -
21.01.2018 02:00:00 - - - - - - - -
21.01.2018 01:00:00 - - - - - - - -
21.01.2018 00:00:00 - - - - - - - -
20.01.2018 23:00:00 - - - - - - - -
20.01.2018 22:00:00 - - - - - - - -
20.01.2018 21:00:00 - - - - - - - -
20.01.2018 20:00:00 - - - - - - - -
20.01.2018 19:00:00 11,8 9,4 22 12 NNW 1016,6 10 0
20.01.2018 18:00:00 12,0 9,4 21 11 NW 1016,0 10 0
20.01.2018 17:00:00 12,0 9,7 22 12 NW 1015,8 15 42
20.01.2018 16:00:00 13,0 10,7 24 13 NW 1015,6 18 0
20.01.2018 15:00:00 13,0 9,1 28 15 NNW 1015,4 18 0
20.01.2018 14:00:00 13,4 11,1 26 14 NNW 1015,2 18 12
20.01.2018 13:00:00 13,6 11,3 24 13 NNW 1015,4 18 12
20.01.2018 12:00:00 13,2 10,9 22 12 NNW 1015,8 18 0
20.01.2018 11:00:00 13,2 10,9 15 8 NNW 1015,8 18 0
20.01.2018 10:00:00 13,0 10,7 13 7 N 1015,2 18 6
20.01.2018 09:00:00 12,4 10,1 13 7 N 1015,1 18 0
20.01.2018 08:00:00 12,0 9,7 11 6 NW 1015,4 15 0
20.01.2018 07:00:00 11,8 9,5 15 8 WNW 1014,9 12 0
20.01.2018 06:00:00 - - - - - - - -
20.01.2018 05:00:00 - - - - - - - -
20.01.2018 04:00:00 - - - - - - - -
20.01.2018 03:00:00 - - - - - - - -
20.01.2018 02:00:00 - - - - - - - -
20.01.2018 01:00:00 - - - - - - - -
20.01.2018 00:00:00 - - - - - - - -
19.01.2018 23:00:00 - - - - - - - -
19.01.2018 22:00:00 - - - - - - - -
19.01.2018 21:00:00 - - - - - - - -
19.01.2018 20:00:00 - - - - - - - -
19.01.2018 19:00:00 11,8 9,9 9 5 S 1015,5 20 0
19.01.2018 18:00:00 12,0 10,1 16 9 S 1015,4 15 0
19.01.2018 17:00:00 12,4 10,3 22 12 S 1015,5 20 24
19.01.2018 16:00:00 13,2 11,1 26 14 S 1015,3 15 54
19.01.2018 15:00:00 13,6 11,5 24 13 S 1015,8 15 36
19.01.2018 14:00:00 13,0 11,1 24 13 S 1015,8 15 24
19.01.2018 13:00:00 13,8 11,5 28 15 SSW 1017,4 15 60
19.01.2018 12:00:00 14,0 11,7 31 17 SSW 1017,6 15 60
19.01.2018 11:00:00 13,8 11,5 31 17 S 1018,4 15 60
19.01.2018 10:00:00 13,0 10,7 28 15 S 1018,6 15 60
19.01.2018 09:00:00 11,8 9,7 34 18 S 1018,8 15 24
19.01.2018 08:00:00 10,2 8,1 21 11 S 1019,0 10 0
19.01.2018 07:00:00 10,0 8,3 16 9 S 1018,9 10 0
19.01.2018 06:00:00 - - - - - - - -
19.01.2018 05:00:00 - - - - - - - -
19.01.2018 04:00:00 - - - - - - - -
19.01.2018 03:00:00 - - - - - - - -
19.01.2018 02:00:00 - - - - - - - -
19.01.2018 01:00:00 - - - - - - - -
19.01.2018 00:00:00 - - - - - - - -
18.01.2018 23:00:00 - - - - - - - -
18.01.2018 22:00:00 - - - - - - - -
18.01.2018 21:00:00 - - - - - - - -
18.01.2018 20:00:00 - - - - - - - -
18.01.2018 19:00:00 9,8 8,9 5 3 SSW 1023,5 15 0
18.01.2018 18:00:00 11,0 8,7 8 4 W 1023,6 18 24
18.01.2018 17:00:00 11,8 8,1 9 5 WNW 1023,7 20 60
18.01.2018 16:00:00 12,2 8,5 13 7 W 1023,7 20 60
18.01.2018 15:00:00 12,6 9,8 13 7 W 1023,9 20 60
18.01.2018 14:00:00 12,6 9,8 13 7 NW 1024,0 20 48
18.01.2018 13:00:00 12,8 10,0 15 8 NW 1024,1 20 54
18.01.2018 12:00:00 13,0 9,1 13 7 N 1024,4 20 60
18.01.2018 11:00:00 12,8 8,9 15 8 NNW 1024,5 20 54
18.01.2018 10:00:00 12,2 8,9 18 10 N 1024,1 20 12

tt = Température de l'air
td = dewpoint
ff = Vitesse du vent
dd = Direction du vent
ppp = reduced air pressure
vv = visibility
sd = Ensoleillement

stations d'obs. à proximité